Simultaneous Nadir Overpasses (SNOs) Predictions

Prediction of SNOs between AQUA and NOAA-19 Satellite Orbit:

Table of predicted SNOs for the next 14.0 days since TLE Epoch: 5/25/2013
Index Date (AQUA) Time (AQUA) Lat,Lon (AQUA) SZA (AQUA ) Date (NOAA-19) Time (NOAA-19) Lat,Lon (NOAA-19) SZA (NOAA-19 ) Distance(km) Time Diff (sec)
1 05/25/2013 19:13:01 -49.55, 86.06 149.27 05/25/2013 19:12:02 -49.55, 85.97 149.37 6.69 59
2 05/25/2013 20:01:32 46.09,-104.95 28.14 05/25/2013 20:02:11 46.02,-105.33 28.00 30.17 39
3 05/27/2013 23:57:15 -49.34, 15.07 149.80 05/27/2013 23:56:19 -49.35, 14.99 149.89 6.35 56
4 05/28/2013 00:45:49 46.06,-176.02 27.76 05/28/2013 00:46:31 46.00,-176.39 27.63 29.81 42
5 05/30/2013 04:41:29 -49.16, -55.93 150.28 05/30/2013 04:40:36 -49.16, -56.00 150.37 5.26 53
6 05/30/2013 05:30:06 46.06, 112.91 27.42 05/30/2013 05:30:51 45.99, 112.54 27.30 29.55 45
7 06/01/2013 09:25:43 -49.01,-126.93 150.71 06/01/2013 09:24:53 -48.97,-126.99 150.82 5.37 50
8 06/01/2013 10:14:23 46.09, 41.83 27.13 06/01/2013 10:15:12 46.04, 41.45 27.03 29.58 49
9 06/03/2013 14:09:55 -48.76, 162.09 151.19 06/03/2013 14:09:09 -48.73, 162.05 151.29 4.65 46
10 06/03/2013 14:58:39 46.08, -29.24 26.84 06/03/2013 14:59:31 45.99, -29.60 26.71 29.48 52
11 06/05/2013 18:54:08 -48.60, 91.09 151.58 06/05/2013 18:53:27 -48.61, 91.03 151.64 4.55 41
12 06/05/2013 19:42:55 46.10,-100.31 26.59 06/05/2013 19:43:52 46.06,-100.69 26.50 29.64 57
13 06/07/2013 23:38:17 -48.23, 20.17
